Location: Clatteringshaws Loch
(55.0508°N, 4.2860°W)
Time: 14:21:27
(UTC+01:00)

SR - Visible Passes

Search period start: 22 September 2017 00:00
Search period end: 02 October 2017 00:00
Orbit: 581 x 876 km, 66.7° (Epoch: 22 September)

Date Brightness Start Highest point End Pass type
(mag) Time Alt. Az. Time Alt. Az. Time Alt. Az.
22 Sep ? 01:41:07 10° NW 01:41:41 13° NW 01:41:41 13° NW visible
22 Sep ? 21:25:44 10° WNW 21:29:37 22° N 21:33:16 10° NE visible
22 Sep ? 23:09:21 10° NW 23:13:11 23° NNE 23:13:46 22° NNE visible
23 Sep ? 00:51:38 10° NW 00:53:09 20° NNW 00:53:09 20° NNW visible
23 Sep ? 20:35:27 10° WNW 20:39:40 25° NNW 20:43:36 10° NE visible
23 Sep ? 22:19:33 10° NW 22:23:12 21° N 22:25:15 16° NE visible
24 Sep ? 00:02:09 10° NW 00:04:39 26° NNW 00:04:39 26° NNW visible
24 Sep ? 19:45:10 10° W 19:49:47 32° NNW 19:54:05 10° NE visible
24 Sep ? 21:29:32 10° NW 21:33:12 20° N 21:36:39 10° NE visible
24 Sep ? 23:12:37 10° NW 23:16:10 27° N 23:16:10 27° N visible
25 Sep ? 00:54:46 10° NW 00:55:33 15° NW 00:55:33 15° NW visible
25 Sep ? 20:39:20 10° WNW 20:43:12 22° NNW 20:46:50 10° NE visible
25 Sep ? 22:22:59 10° NW 22:26:46 23° NNE 22:27:42 21° NNE visible
26 Sep ? 00:05:16 10° NW 00:07:06 22° NNW 00:07:06 22° NNW visible
26 Sep ? 19:49:03 10° WNW 19:53:15 25° NNW 19:57:12 10° NE visible
26 Sep ? 21:33:11 10° NW 21:36:47 20° N 21:39:16 14° NE visible
26 Sep ? 23:15:48 10° NW 23:18:40 28° N 23:18:40 28° N visible
27 Sep ? 00:57:57 10° NW 00:58:04 11° NW 00:58:04 11° NW visible
27 Sep ? 20:43:09 10° NW 20:46:46 20° N 20:50:13 10° NE visible
27 Sep ? 22:26:16 10° NW 22:30:14 27° NNE 22:30:14 27° NNE visible
28 Sep ? 00:08:24 10° NW 00:09:38 18° NW 00:09:38 18° NW visible
28 Sep ? 19:52:57 10° WNW 19:56:47 22° NNW 20:00:24 10° NE visible
28 Sep ? 21:36:37 10° NW 21:40:21 22° NNE 21:41:50 19° NE visible
28 Sep ? 23:18:55 10° NW 23:21:14 27° NNW 23:21:14 27° NNW visible
29 Sep ? 20:46:48 10° NW 20:50:22 20° N 20:53:26 11° NE visible
29 Sep ? 22:29:26 10° NW 22:32:50 32° N 22:32:50 32° N visible
30 Sep ? 00:11:34 10° NW 00:12:14 14° NW 00:12:14 14° NW visible
30 Sep ? 19:56:46 10° NW 20:00:22 20° N 20:03:46 10° NE visible
30 Sep ? 21:39:54 10° NW 21:43:51 26° NNE 21:44:28 25° NE visible
30 Sep ? 23:22:02 10° NW 23:23:52 23° NW 23:23:52 23° NW visible
01 Oct ? 20:50:15 10° NW 20:53:55 22° NNE 20:56:06 16° NE visible
01 Oct ? 22:32:33 10° NW 22:35:30 34° NNW 22:35:30 34° NNW visible
